• MPC Preparation (Info)

  • MPEC 2015-B87 : 2015 BE92

    The following Minor Planet Electronic Circular may be linked-to from your own Web pages, but must not otherwise be redistributed electronically.

    A form allowing access to any MPEC is at the bottom of this page.


    Read MPEC 2015-B86 Read MPEC 2015-B88


    M.P.E.C. 2015-B87                                Issued 2015 Jan. 21, 15:09 UT
    
         The Minor Planet Electronic Circulars contain information on unusual
             minor planets and routine data on comets.  They are published
       on behalf of Commission 20 of the International Astronomical Union by the
              Minor Planet Center, Smithsonian Astrophysical Observatory,
                              Cambridge, MA 02138, U.S.A.
    
                 Prepared using the Tamkin Foundation Computer Network
    
                                  MPC@CFA.HARVARD.EDU
                URL https://www.minorplanetcenter.net/    ISSN 1523-6714
    
                                       2015 BE92
    
    Observations:
         K15B92E* C2015 01 19.29192 08 40 04.20 +14 22 52.2          20.3 VqEB087G96
         K15B92E  C2015 01 19.29860 08 40 01.52 +14 22 38.2          21.2 VqEB087G96
         K15B92E  C2015 01 19.30527 08 39 58.94 +14 22 23.3          21.5 VqEB087G96
         K15B92E  C2015 01 19.31194 08 39 56.36 +14 22 09.0          20.7 VqEB087G96
         K15B92E  C2015 01 19.37004 08 39 33.60 +14 19 56.7          20.8 VqEB087G96
         K15B92E  C2015 01 19.38430 08 39 28.02 +14 19 23.0          20.7 VqEB087G96
         K15B92E  C2015 01 19.39962 08 39 22.00 +14 18 46.4          21.0 VqEB087G96
         K15B92E  C2015 01 19.40741 08 39 19.08 +14 18 28.6          19.9 VqEB087G96
         K15B92E  C2015 01 19.41520 08 39 16.02 +14 18 08.4          20.5 VqEB087G96
         K15B92E  C2015 01 19.43263 08 39 09.19 +14 17 25.0          20.6 VqEB087G96
         K15B92E  C2015 01 19.44089 08 39 06.11 +14 17 04.3          21.1 VqEB087G96
         K15B92E  C2015 01 19.44914 08 39 02.90 +14 16 44.0          21.3 VqEB087G96
         K15B92E  C2015 01 19.45740 08 38 59.79 +14 16 22.7          21.0 VqEB087G96
         K15B92E KC2015 01 19.96979 08 36 28.22 +13 54 19.3          21.3 RqEB087J95
         K15B92E KC2015 01 19.98693 08 36 21.15 +13 53 36.8                qEB087J95
         K15B92E KC2015 01 20.00115 08 36 15.26 +13 53 00.0                qEB087J95
         K15B92E  C2015 01 21.30898 08 27 35.65 +12 48 21.6          21.6 VqEB087G96
         K15B92E  C2015 01 21.31597 08 27 31.67 +12 47 57.3          20.2 VqEB087G96
         K15B92E  C2015 01 21.32296 08 27 27.72 +12 47 32.4          20.7 VqEB087G96
         K15B92E  C2015 01 21.32995 08 27 23.67 +12 47 08.1          20.0 VqEB087G96
    
    Observer details:
    G96 Mt. Lemmon Survey.  Observers A. D. Grauer, R. A. Kowalski.  Measurers
        E. J. Christensen, A. R. Gibbs, A. D. Grauer, R. E. Hill, J. A. Johnson,
        R. A. Kowalski, S. M. Larson, R. G. Matheny, F. C. Shelly, D. C. Fuls.
        1.5-m reflector + CCD.
    J95 Great Shefford.  Observer P. Birtwhistle.  0.40-m f/6.0 Schmidt-Cassegrain
        + CCD.
    
    Orbital elements:
    2015 BE92                                                Earth MOID = 0.0057 AU
    Epoch 2014 Dec. 9.0 TT = JDT 2457000.5                  MPC
    M 223.29116              (2000.0)            P               Q
    n   1.03281786     Peri.  302.24799     -0.57780558     +0.81595387
    a   0.9692896      Node   292.44410     -0.74174977     -0.53467392
    e   0.1971647      Incl.    1.17628     -0.34051138     -0.21987060
    P   0.95           H   27.5           G   0.15           U   7
    Residuals in seconds of arc
    150119 G96  0.9+  0.3-    150119 G96  1.3+  1.2+    150119 J95  0.1-  0.3+
    150119 G96  0.7-  0.1+    150119 G96  0.8+  0.1+    150120 J95  0.3-  0.2-
    150119 G96  0.7-  0.3-    150119 G96  0.6-  0.1-    150121 G96  0.5-  0.1+
    150119 G96  0.5-  0.0     150119 G96  0.6+  0.1-    150121 G96  0.2-  0.1+
    150119 G96  0.4-  0.2-    150119 G96  0.4-  0.4+    150121 G96  0.6+  0.2-
    150119 G96  0.1-  0.1-    150119 G96  0.1-  0.1+    150121 G96  0.0   0.2+
    150119 G96  0.4-  0.1+    150119 J95  0.5+  0.3-
    
    Ephemeris:
    2015 BE92                a,e,i = 0.97, 0.20, 1                   q = 0.7782
    Date    TT    R. A. (2000) Decl.     Delta      r     Elong.  Phase     V
    2014 12 22    09 01 57.2 +19 40 10   0.1467  1.0965   137.5    37.3    25.0
    ...
    2015 01 06    09 05 08.2 +18 05 00   0.08443 1.0584   151.7    26.2    23.4
    ...
    2015 01 14    08 56 46.4 +16 34 14   0.05418 1.0350   161.3    17.7    22.2
    ...
    2015 01 20    08 36 13.7 +13 55 49   0.03282 1.0164   170.4     9.3    20.7
    2015 01 21    08 29 50.7 +13 07 29   0.02940 1.0132   171.6     8.1    20.4
    2015 01 22    08 21 50.0 +12 06 07   0.02602 1.0099   172.1     7.7    20.1
    ...
    2015 01 28    05 34 23.4 -11 07 59   0.0091070.9901   125.6    54.0    19.2
    ...
    2015 02 05    22 45 51.6 -26 01 39   0.02548 0.9626    23.9   155.5    29.1
    ...
    2015 02 20    21 50 15.8 -21 23 31   0.08023 0.9102    11.4   167.6
    
    A. U. Tomatic                (C) Copyright 2015 MPC           M.P.E.C. 2015-B87
    

    Read MPEC 2015-B86 Read MPEC 2015-B88


    MPEC number:

    Enter an MPEC number in one of the following forms:

    • 1997-B01 (the full form)
    • J97B01 (the packed version of the full form)
    • B01 (the abbreviated form)